Regional Weather Roundup
Issued by NWS

Home | Current Version | Previous Version | Graphics & Text | Print | Product List | Glossary On
Versions: 1 2 3 4 5 6 7 8 9 10 11 12 13 14 15 16 17 18 19 20 21 22 23 24 25 26 27 28 29 30 31 32 33 34 35 36 37 38 39 40 41 42 43 44 45 46 47 48 49 50
000
ASUS43 KOAX 051202
RWRNE

WEATHER ROUNDUP FOR NEBRASKA
NATIONAL WEATHER SERVICE OMAHA NE
700 AM CDT TUE MAY 05 2015

NOTES: SATELLITE DATA IS BEING USED TO AUGMENT CLOUD COVER ABOVE
       12000 FEET.
       "FAIR" INDICATES FEW OR NO CLOUDS BELOW 12,000 FEET WITH NO
       SIGNIFICANT WEATHER AND/OR OBSTRUCTIONS TO VISIBILITY.

  * THESE STATIONS DO NOT REPORT WEATHER SUCH AS RAIN...SNOW OR FOG.

NEZ001>004-019>022-054>056-051300-
NEBRASKA PANHANDLE

CITY           SKY/WX    TMP DP  RH WIND       PRES   REMARKS
SCOTTSBLUFF    CLOUDY    47  45  93 SE10      30.02F
6HR MIN TEMP:  47; 6HR MAX TEMP:  49;

ALLIANCE       CLOUDY    48  45  89 SE8       30.02S
6HR MIN TEMP:  47; 6HR MAX TEMP:  50;

CHADRON        CLEAR     40  36  86 N6        30.00F
6HR MIN TEMP:  39; 6HR MAX TEMP:  46;

KIMBALL        FOG       44  44  99 S8        30.01F VSB 1/2
SIDNEY         CLOUDY    46  45  96 S6        30.04S FOG
6HR MIN TEMP:  45; 6HR MAX TEMP:  46;

$$

NEZ057>060-069>072-079>082-051300-
SOUTHWEST NEBRASKA

CITY           SKY/WX    TMP DP  RH WIND       PRES   REMARKS
NORTH PLATTE   CLOUDY    51  51 100 E3        30.03S FOG
6HR MIN TEMP:  51; 6HR MAX TEMP:  52;

IMPERIAL       FOG       50  49  96 N5        30.02F VSB 1/2
6HR MIN TEMP:  49; 6HR MAX TEMP:  50; 6HR PCP: TRACE;

MCCOOK         FOG       54  53  97 E3        30.02R VSB 1/4
6HR MIN TEMP:  53; 6HR MAX TEMP:  54;

$$

NEZ005>010-023>029-035>040-094-051300-
NORTH CENTRAL NEBRASKA

CITY           SKY/WX    TMP DP  RH WIND       PRES   REMARKS
VALENTINE      CLOUDY    50  42  74 E8        30.04F
6HR MIN TEMP:  43; 6HR MAX TEMP:  52;

AINSWORTH      CLOUDY    53  50  89 E9        30.05F FOG
BROKEN BOW     FOG       54  53  97 NE5       30.03S VSB 3/4
6HR MIN TEMP:  53; 6HR MAX TEMP:  54; 6HR PCP: TRACE;

ORD            FOG       54  53  97 NE6       30.03F VSB 1
6HR MIN TEMP:  54; 6HR MAX TEMP:  55;

$$

NEZ041-046>049-061>064-073>077-083>087-051300-
SOUTH CENTRAL NEBRASKA

CITY           SKY/WX    TMP DP  RH WIND       PRES   REMARKS
GRAND ISLAND   FOG       55  55 100 E7        30.05R VSB 1/4
6HR MIN TEMP:  54; 6HR MAX TEMP:  55;

AURORA         FOG       57  57 100 E6        30.05R VSB 1/4
HASTINGS       CLOUDY    58  57  97 S5        30.03R FOG
6HR MIN TEMP:  55; 6HR MAX TEMP:  58; 6HR PCP:  0.02;

KEARNEY *      CLOUDY    55  54  94 E6        30.03R VSB<1/4
$$

NEZ011>018-030>034-042>045-051300-
NORTHEAST NEBRASKA

CITY           SKY/WX    TMP DP  RH WIND       PRES   REMARKS
NORFOLK        CLOUDY    55  54  96 E6        30.05F FOG
6HR MIN TEMP:  55; 6HR MAX TEMP:  56; 6HR PCP:  0.14;

COLUMBUS *     CLOUDY    55  50  82 E8        30.06S VSB 1
TEKAMAH        LGT RAIN  58  56  93 CALM      30.07R FOG
6HR MIN TEMP:  57; 6HR MAX TEMP:  58; 6HR PCP:  0.06;

$$

NEZ050>053-065>068-078-088>093-051300-
SOUTHEAST NEBRASKA

CITY           SKY/WX    TMP DP  RH WIND       PRES   REMARKS
LINCOLN        CLOUDY    60  59  96 E5        30.06R FOG
6HR MIN TEMP:  59; 6HR MAX TEMP:  62;

OMAHA EPPLEY   CLOUDY    60  58  92 E3        30.06S FOG
6HR MIN TEMP:  57; 6HR MAX TEMP:  61;

FALLS CITY     PTCLDY    58  57  97 SE3       30.07R
6HR MIN TEMP:  57; 6HR MAX TEMP:  62; 6HR PCP:  0.03;

PLATTSMOUTH    CLOUDY    58  57  94 E5        30.07S FOG
$$

NEZ044-045-051>053-067-051300-
OMAHA AREA

CITY           SKY/WX    TMP DP  RH WIND       PRES   REMARKS
OMAHA EPPLEY   CLOUDY    60  58  92 E3        30.06S FOG
6HR MIN TEMP:  57; 6HR MAX TEMP:  61;

OFFUTT AFB     CLOUDY    60  59  96 E6        30.06F
PLATTSMOUTH    CLOUDY    58  57  94 E5        30.07S FOG
$$


USA.gov is the U.S. government's official web portal to all federal, state and local government web resources and services.